Time,TemperatureF,DewpointF,PressureIn,WindDirection,WindDirectionDegrees,WindSpeedMPH,WindSpeedGustMPH,Humidity,HourlyPrecipIn,Conditions,Clouds,dailyrainin,SolarRadiationWatts/m^2,SoftwareType,DateUTC
2013-04-17 00:12:00,18.0,3.0,-100.00,NNE,29,4.0,13.0,52,0.00,,,0.01,0.000000,,2013-04-17 06:12:00,
2013-04-17 00:22:00,18.0,3.0,-100.00,NNE,29,4.0,13.0,52,0.00,,,0.01,0.000000,,2013-04-17 06:22:00,
2013-04-17 00:32:00,18.0,3.0,-100.00,NNE,29,4.0,13.0,52,0.00,,,0.01,0.000000,,2013-04-17 06:32:00,
2013-04-17 00:42:00,18.0,3.0,-100.00,NNE,29,4.0,13.0,52,0.00,,,0.01,0.000000,,2013-04-17 06:42:00,
2013-04-17 01:12:00,17.0,3.0,-100.00,NNE,22,5.0,15.0,53,0.00,,,0.01,0.000000,,2013-04-17 07:12:00,
2013-04-17 01:22:00,17.0,3.0,-100.00,NNE,22,5.0,15.0,53,0.00,,,0.01,0.000000,,2013-04-17 07:22:00,
2013-04-17 01:32:00,17.0,3.0,-100.00,NNE,22,5.0,15.0,53,0.00,,,0.01,0.000000,,2013-04-17 07:32:00,
2013-04-17 01:42:00,17.0,3.0,-100.00,NNE,22,5.0,15.0,53,0.00,,,0.01,0.000000,,2013-04-17 07:42:00,
2013-04-17 02:12:00,15.0,1.0,-100.00,NNE,26,5.0,14.0,54,0.00,,,0.01,0.000000,,2013-04-17 08:12:00,
2013-04-17 02:22:00,15.0,1.0,-100.00,NNE,26,5.0,14.0,54,0.00,,,0.01,0.000000,,2013-04-17 08:22:00,
2013-04-17 02:32:00,15.0,1.0,-100.00,NNE,26,5.0,14.0,54,0.00,,,0.01,0.000000,,2013-04-17 08:32:00,
2013-04-17 02:42:00,15.0,1.0,-100.00,NNE,26,5.0,14.0,54,0.00,,,0.01,0.000000,,2013-04-17 08:42:00,
2013-04-17 03:12:00,14.0,1.0,-100.00,NNE,28,4.0,11.0,56,0.00,,,0.01,0.000000,,2013-04-17 09:12:00,
2013-04-17 03:22:00,14.0,1.0,-100.00,NNE,28,4.0,11.0,56,0.00,,,0.01,0.000000,,2013-04-17 09:22:00,
2013-04-17 03:33:00,14.0,1.0,-100.00,NNE,28,4.0,11.0,56,0.00,,,0.01,0.000000,,2013-04-17 09:33:00,
2013-04-17 03:42:00,14.0,1.0,-100.00,NNE,28,4.0,11.0,56,0.00,,,0.01,0.000000,,2013-04-17 09:42:00,
2013-04-17 04:12:00,13.0,1.0,-100.00,NE,38,4.0,10.0,57,0.00,,,0.01,0.000000,,2013-04-17 10:12:00,
2013-04-17 04:23:00,13.0,1.0,-100.00,NE,38,4.0,10.0,57,0.00,,,0.01,0.000000,,2013-04-17 10:23:00,
2013-04-17 04:32:00,13.0,1.0,-100.00,NE,38,4.0,10.0,57,0.00,,,0.01,0.000000,,2013-04-17 10:32:00,
2013-04-17 04:42:00,13.0,1.0,-100.00,NE,38,4.0,10.0,57,0.00,,,0.01,0.000000,,2013-04-17 10:42:00,
2013-04-17 05:12:00,11.0,0.0,-100.00,NE,34,1.0,7.0,60,0.00,,,0.01,0.000000,,2013-04-17 11:12:00,
2013-04-17 05:22:00,11.0,0.0,-100.00,NE,34,1.0,7.0,60,0.00,,,0.01,0.000000,,2013-04-17 11:22:00,
2013-04-17 05:32:00,11.0,0.0,-100.00,NE,34,1.0,7.0,60,0.00,,,0.01,0.000000,,2013-04-17 11:32:00,
2013-04-17 05:42:00,11.0,0.0,-100.00,NE,34,1.0,7.0,60,0.00,,,0.01,0.000000,,2013-04-17 11:42:00,
2013-04-17 06:12:00,10.0,-1.0,-100.00,NE,37,2.0,6.0,60,0.00,,,0.01,0.000000,,2013-04-17 12:12:00,
2013-04-17 06:22:00,10.0,-1.0,-100.00,NE,37,2.0,6.0,60,0.00,,,0.01,0.000000,,2013-04-17 12:22:00,
2013-04-17 06:32:00,10.0,-1.0,-100.00,NE,37,2.0,6.0,60,0.00,,,0.01,0.000000,,2013-04-17 12:32:00,
2013-04-17 06:42:00,10.0,-1.0,-100.00,NE,37,2.0,6.0,60,0.00,,,0.01,0.000000,,2013-04-17 12:42:00,
2013-04-17 07:12:00,10.0,-1.0,-100.00,NE,39,2.0,6.0,60,0.00,,,0.01,2.000000,,2013-04-17 13:12:00,
2013-04-17 07:22:00,10.0,-1.0,-100.00,NE,39,2.0,6.0,60,0.00,,,0.01,2.000000,,2013-04-17 13:22:00,
2013-04-17 07:32:00,10.0,-1.0,-100.00,NE,39,2.0,6.0,60,0.00,,,0.01,2.000000,,2013-04-17 13:32:00,
2013-04-17 07:42:00,10.0,-1.0,-100.00,NE,39,2.0,6.0,60,0.00,,,0.01,2.000000,,2013-04-17 13:42:00,
2013-04-17 08:12:00,12.0,-1.0,-100.00,NE,42,2.0,5.0,56,0.00,,,0.01,19.000000,,2013-04-17 14:12:00,
2013-04-17 08:22:00,12.0,-1.0,-100.00,NE,42,2.0,5.0,56,0.00,,,0.01,19.000000,,2013-04-17 14:22:00,
2013-04-17 08:32:00,12.0,-1.0,-100.00,NE,42,2.0,5.0,56,0.00,,,0.01,19.000000,,2013-04-17 14:32:00,
2013-04-17 08:42:00,12.0,-1.0,-100.00,NE,42,2.0,5.0,56,0.00,,,0.01,19.000000,,2013-04-17 14:42:00,
2013-04-17 09:12:00,22.0,0.0,-100.00,ENE,67,3.0,7.0,38,0.00,,,0.01,177.000000,,2013-04-17 15:12:00,
2013-04-17 09:22:00,22.0,0.0,-100.00,ENE,67,3.0,7.0,38,0.00,,,0.01,177.000000,,2013-04-17 15:22:00,
2013-04-17 09:33:00,22.0,0.0,-100.00,ENE,67,3.0,7.0,38,0.00,,,0.01,177.000000,,2013-04-17 15:33:00,
2013-04-17 10:12:00,26.0,1.0,-100.00,NE,41,5.0,10.0,33,0.00,,,0.01,361.000000,,2013-04-17 16:12:00,
2013-04-17 10:22:00,26.0,1.0,-100.00,NE,41,5.0,10.0,33,0.00,,,0.01,361.000000,,2013-04-17 16:22:00,
2013-04-17 10:32:00,26.0,1.0,-100.00,NE,41,5.0,10.0,33,0.00,,,0.01,361.000000,,2013-04-17 16:32:00,
2013-04-17 10:42:00,26.0,1.0,-100.00,NE,41,5.0,10.0,33,0.00,,,0.01,361.000000,,2013-04-17 16:42:00,
2013-04-17 11:12:00,33.0,2.0,-100.00,ENE,65,4.0,12.0,26,0.00,,,0.00,592.000000,,2013-04-17 17:12:00,
2013-04-17 12:12:00,29.0,1.0,-100.00,NNE,27,4.0,15.0,29,-99.99,,,0.00,589.000000,,2013-04-17 18:12:00,
2013-04-17 12:22:00,29.0,1.0,-100.00,NNE,27,4.0,15.0,29,-99.99,,,0.00,589.000000,,2013-04-17 18:22:00,
2013-04-17 12:32:00,29.0,1.0,-100.00,NNE,27,4.0,15.0,29,-99.99,,,0.00,589.000000,,2013-04-17 18:32:00,
2013-04-17 12:42:00,29.0,1.0,-100.00,NNE,27,4.0,15.0,29,-99.99,,,0.00,589.000000,,2013-04-17 18:42:00,
2013-04-17 13:12:00,33.0,2.0,-100.00,North,5,5.0,12.0,26,0.00,,,0.00,797.000000,,2013-04-17 19:12:00,
2013-04-17 13:22:00,33.0,2.0,-100.00,North,5,5.0,12.0,26,0.00,,,0.00,797.000000,,2013-04-17 19:22:00,
2013-04-17 13:32:00,33.0,2.0,-100.00,North,5,5.0,12.0,26,0.00,,,0.00,797.000000,,2013-04-17 19:32:00,
2013-04-17 13:42:00,33.0,2.0,-100.00,North,5,5.0,12.0,26,0.00,,,0.00,797.000000,,2013-04-17 19:42:00,
2013-04-17 14:12:00,36.0,4.0,-100.00,NNE,14,5.0,15.0,25,0.00,,,0.00,682.000000,,2013-04-17 20:12:00,
2013-04-17 14:22:00,36.0,4.0,-100.00,NNE,14,5.0,15.0,25,0.00,,,0.00,682.000000,,2013-04-17 20:22:00,
2013-04-17 14:32:00,36.0,4.0,-100.00,NNE,14,5.0,15.0,25,0.00,,,0.00,682.000000,,2013-04-17 20:32:00,
2013-04-17 14:42:00,36.0,4.0,-100.00,NNE,14,5.0,15.0,25,0.00,,,0.00,682.000000,,2013-04-17 20:42:00,
2013-04-17 15:12:00,38.0,3.0,-100.00,North,351,4.0,13.0,22,0.00,,,0.00,753.000000,,2013-04-17 21:12:00,
2013-04-17 15:22:00,38.0,3.0,-100.00,North,351,4.0,13.0,22,0.00,,,0.00,753.000000,,2013-04-17 21:22:00,
2013-04-17 15:32:00,38.0,3.0,-100.00,North,351,4.0,13.0,22,0.00,,,0.00,753.000000,,2013-04-17 21:32:00,
2013-04-17 15:42:00,38.0,3.0,-100.00,North,351,4.0,13.0,22,0.00,,,0.00,753.000000,,2013-04-17 21:42:00,
2013-04-17 16:12:00,37.0,4.0,-100.00,North,0,6.0,12.0,24,0.00,,,0.00,740.000000,,2013-04-17 22:12:00,
2013-04-17 16:22:00,37.0,4.0,-100.00,North,0,6.0,12.0,24,0.00,,,0.00,740.000000,,2013-04-17 22:22:00,
2013-04-17 16:33:00,37.0,4.0,-100.00,North,0,6.0,12.0,24,0.00,,,0.00,740.000000,,2013-04-17 22:33:00,
2013-04-17 16:42:00,37.0,4.0,-100.00,North,0,6.0,12.0,24,0.00,,,0.00,740.000000,,2013-04-17 22:42:00,
2013-04-17 17:12:00,33.0,2.0,-100.00,North,6,4.0,14.0,26,0.00,,,0.00,449.000000,,2013-04-17 23:12:00,
2013-04-17 17:22:00,33.0,2.0,-100.00,North,6,4.0,14.0,26,0.00,,,0.00,449.000000,,2013-04-17 23:22:00,
2013-04-17 17:32:00,33.0,2.0,-100.00,North,6,4.0,14.0,26,0.00,,,0.00,449.000000,,2013-04-17 23:32:00,
2013-04-17 17:42:00,33.0,2.0,-100.00,North,6,4.0,14.0,26,0.00,,,0.00,449.000000,,2013-04-17 23:42:00,
2013-04-17 18:12:00,32.0,4.0,-100.00,North,357,5.0,16.0,30,0.00,,,0.00,257.000000,,2013-04-18 00:12:00,
2013-04-17 18:22:00,32.0,4.0,-100.00,North,357,5.0,16.0,30,0.00,,,0.00,257.000000,,2013-04-18 00:22:00,
2013-04-17 18:32:00,32.0,4.0,-100.00,North,357,5.0,16.0,30,0.00,,,0.00,257.000000,,2013-04-18 00:32:00,
2013-04-17 18:42:00,32.0,4.0,-100.00,North,357,5.0,16.0,30,0.00,,,0.00,257.000000,,2013-04-18 00:42:00,
2013-04-17 19:12:00,29.0,3.0,-100.00,North,5,7.0,17.0,32,0.00,,,0.00,326.000000,,2013-04-18 01:12:00,
2013-04-17 19:22:00,29.0,3.0,-100.00,North,5,7.0,17.0,32,0.00,,,0.00,326.000000,,2013-04-18 01:22:00,
2013-04-17 19:32:00,29.0,3.0,-100.00,North,5,7.0,17.0,32,0.00,,,0.00,326.000000,,2013-04-18 01:32:00,
2013-04-17 19:42:00,29.0,3.0,-100.00,North,5,7.0,17.0,32,0.00,,,0.00,326.000000,,2013-04-18 01:42:00,
2013-04-17 20:12:00,25.0,4.0,-100.00,NNE,30,4.0,15.0,40,0.00,,,0.00,27.000000,,2013-04-18 02:12:00,
2013-04-17 20:22:00,25.0,4.0,-100.00,NNE,30,4.0,15.0,40,0.00,,,0.00,27.000000,,2013-04-18 02:22:00,
2013-04-17 20:32:00,25.0,4.0,-100.00,NNE,30,4.0,15.0,40,0.00,,,0.00,27.000000,,2013-04-18 02:32:00,
2013-04-17 20:42:00,25.0,4.0,-100.00,NNE,30,4.0,15.0,40,0.00,,,0.00,27.000000,,2013-04-18 02:42:00,
2013-04-17 21:12:00,22.0,1.0,-100.00,North,8,4.0,10.0,40,0.00,,,0.00,4.000000,,2013-04-18 03:12:00,
2013-04-17 21:22:00,22.0,1.0,-100.00,North,8,4.0,10.0,40,0.00,,,0.00,4.000000,,2013-04-18 03:22:00,
2013-04-17 21:33:00,22.0,1.0,-100.00,North,8,4.0,10.0,40,0.00,,,0.00,4.000000,,2013-04-18 03:33:00,
2013-04-17 21:43:00,22.0,1.0,-100.00,North,8,4.0,10.0,40,0.00,,,0.00,4.000000,,2013-04-18 03:43:00,
2013-04-17 22:13:00,18.0,1.0,-100.00,North,6,1.0,10.0,47,0.00,,,0.00,0.000000,,2013-04-18 04:13:00,
2013-04-17 22:23:00,18.0,1.0,-100.00,North,6,1.0,10.0,47,0.00,,,0.00,0.000000,,2013-04-18 04:23:00,
2013-04-17 22:33:00,18.0,1.0,-100.00,North,6,1.0,10.0,47,0.00,,,0.00,0.000000,,2013-04-18 04:33:00,
2013-04-17 22:43:00,18.0,1.0,-100.00,North,6,1.0,10.0,47,0.00,,,0.00,0.000000,,2013-04-18 04:43:00,
2013-04-17 23:12:00,18.0,3.0,-100.00,NE,51,2.0,6.0,51,0.00,,,0.00,0.000000,,2013-04-18 05:12:00,
2013-04-17 23:22:00,18.0,3.0,-100.00,NE,51,2.0,6.0,51,0.00,,,0.00,0.000000,,2013-04-18 05:22:00,
2013-04-17 23:32:00,18.0,3.0,-100.00,NE,51,2.0,6.0,51,0.00,,,0.00,0.000000,,2013-04-18 05:32:00,
2013-04-17 23:42:00,18.0,3.0,-100.00,NE,51,2.0,6.0,51,0.00,,,0.00,0.000000,,2013-04-18 05:42:00,